�������l�o���
Date,Time,MP-1(��Sv/h),MP-2(��Sv/h),MP-3(��Sv/h),MP-4(��Sv/h),MP-5(��Sv/h),MP-6(��Sv/h),MP-7(��Sv/h),MP-8(��Sv/h),����,����(m/s),���J
2024/06/06,00:00,0.496,0.763,0.481,0.936,0.685,0.313,0.547,0.507,���k��,3.5,��
2024/06/06,00:10,0.495,0.762,0.480,0.935,0.684,0.313,0.548,0.506,�k��,3.3,��
2024/06/06,00:20,0.493,0.762,0.481,0.934,0.684,0.314,0.548,0.505,�k�k��,3.5,��
2024/06/06,00:30,0.495,0.764,0.479,0.936,0.686,0.313,0.547,0.506,�k�k��,2.9,��
2024/06/06,00:40,0.495,0.761,0.481,0.934,0.686,0.314,0.548,0.504,�k�k��,2.0,��
2024/06/06,00:50,0.496,0.763,0.478,0.935,0.686,0.314,0.547,0.506,��,1.5,��
2024/06/06,01:00,0.495,0.763,0.481,0.936,0.687,0.315,0.548,0.505,���k��,2.0,��
2024/06/06,01:10,0.496,0.762,0.479,0.932,0.686,0.312,0.548,0.506,���쐼,1.7,��
2024/06/06,01:20,0.496,0.763,0.481,0.936,0.686,0.314,0.547,0.506,���쐼,1.7,��
2024/06/06,01:30,0.495,0.761,0.479,0.936,0.686,0.312,0.548,0.506,��,1.5,��
2024/06/06,01:40,0.494,0.761,0.480,0.936,0.684,0.313,0.548,0.504,���k��,1.2,��
2024/06/06,01:50,0.494,0.761,0.479,0.934,0.684,0.312,0.548,0.506,���k��,1.1,��
2024/06/06,02:00,0.494,0.762,0.481,0.935,0.683,0.315,0.546,0.507,��,0.6,��
2024/06/06,02:10,0.494,0.762,0.479,0.934,0.683,0.313,0.547,0.507,�k��,1.1,��
2024/06/06,02:20,0.495,0.761,0.480,0.937,0.685,0.313,0.547,0.505,�k��,1.1,��
2024/06/06,02:30,0.494,0.761,0.479,0.934,0.684,0.313,0.548,0.507,�k��,1.2,��
2024/06/06,02:40,0.494,0.761,0.479,0.936,0.684,0.312,0.549,0.507,�k��,1.9,��
2024/06/06,02:50,0.495,0.762,0.478,0.935,0.683,0.313,0.548,0.506,�k��,2.6,��
2024/06/06,03:00,0.494,0.761,0.479,0.938,0.685,0.313,0.548,0.504,�k�k��,3.0,��
2024/06/06,03:10,0.495,0.761,0.480,0.936,0.684,0.314,0.549,0.506,�k�k��,3.2,��
2024/06/06,03:20,0.495,0.761,0.478,0.936,0.685,0.313,0.547,0.507,�k�k��,3.1,��
2024/06/06,03:30,0.494,0.760,0.480,0.934,0.685,0.312,0.548,0.506,�k,2.2,��
2024/06/06,03:40,0.495,0.761,0.479,0.934,0.684,0.313,0.548,0.506,�k,2.8,��
2024/06/06,03:50,0.494,0.761,0.479,0.936,0.684,0.314,0.547,0.506,�k,2.6,��
2024/06/06,04:00,0.496,0.761,0.480,0.935,0.685,0.315,0.549,0.506,�k�k��,3.0,��
2024/06/06,04:10,0.494,0.761,0.478,0.935,0.683,0.313,0.548,0.505,�k�k��,3.3,��
2024/06/06,04:20,0.495,0.759,0.480,0.935,0.686,0.312,0.547,0.504,�k�k��,4.0,��
2024/06/06,04:30,0.495,0.761,0.480,0.936,0.685,0.312,0.548,0.504,�k�k��,3.8,��
2024/06/06,04:40,0.497,0.763,0.480,0.936,0.685,0.312,0.547,0.507,�k�k��,3.2,��
2024/06/06,04:50,0.494,0.760,0.479,0.935,0.684,0.313,0.548,0.506,�k�k��,3.3,��
2024/06/06,05:00,0.495,0.760,0.479,0.937,0.682,0.314,0.547,0.504,�k�k��,3.4,��
2024/06/06,05:10,0.495,0.761,0.480,0.934,0.683,0.313,0.548,0.507,�k,3.9,��
2024/06/06,05:20,0.493,0.762,0.479,0.934,0.686,0.312,0.548,0.505,�k,3.8,��
2024/06/06,05:30,0.494,0.763,0.479,0.934,0.686,0.312,0.548,0.506,�k,3.5,��
2024/06/06,05:40,0.495,0.763,0.480,0.933,0.685,0.312,0.549,0.507,�k,3.5,��
2024/06/06,05:50,0.496,0.760,0.481,0.934,0.684,0.312,0.548,0.506,�k,2.8,��
2024/06/06,06:00,0.493,0.760,0.480,0.937,0.683,0.313,0.550,0.506,�k,2.6,��
2024/06/06,06:10,0.495,0.760,0.479,0.936,0.685,0.312,0.547,0.505,�k�k��,2.3,��
2024/06/06,06:20,0.497,0.761,0.480,0.936,0.683,0.312,0.549,0.506,�k�k��,1.5,��
2024/06/06,06:30,0.495,0.760,0.478,0.935,0.684,0.312,0.549,0.506,�k�k��,2.0,��
2024/06/06,06:40,0.496,0.758,0.480,0.937,0.684,0.313,0.549,0.505,�k��,2.3,��
2024/06/06,06:50,0.496,0.759,0.480,0.936,0.683,0.312,0.548,0.506,�k�k��,2.0,��
2024/06/06,07:00,0.494,0.758,0.479,0.935,0.682,0.311,0.547,0.505,�k��,2.3,��
2024/06/06,07:10,0.492,0.758,0.479,0.934,0.685,0.310,0.547,0.506,���k��,2.0,��
2024/06/06,07:20,0.493,0.760,0.479,0.937,0.682,0.311,0.547,0.507,�k��,1.7,��
2024/06/06,07:30,0.491,0.761,0.479,0.937,0.683,0.312,0.548,0.505,���쓌,2.6,��
2024/06/06,07:40,0.493,0.760,0.478,0.935,0.683,0.311,0.545,0.504,���k��,2.2,��
2024/06/06,07:50,0.493,0.760,0.478,0.936,0.684,0.311,0.546,0.504,���k��,2.8,��
2024/06/06,08:00,0.492,0.760,0.479,0.936,0.683,0.312,0.545,0.504,���k��,1.7,��
2024/06/06,08:10,0.495,0.760,0.480,0.936,0.683,0.312,0.545,0.502,��,2.6,��
2024/06/06,08:20,0.493,0.759,0.480,0.935,0.684,0.310,0.545,0.503,���k��,2.8,��
2024/06/06,08:30,0.495,0.761,0.480,0.936,0.683,0.310,0.546,0.503,���k��,2.6,��
2024/06/06,08:40,0.494,0.762,0.480,0.936,0.683,0.310,0.545,0.504,��,3.0,��
2024/06/06,08:50,0.495,0.762,0.480,0.935,0.682,0.311,0.546,0.504,��,3.1,��
2024/06/06,09:00,0.495,0.760,0.479,0.936,0.683,0.311,0.545,0.504,��,3.2,��
2024/06/06,09:10,0.495,0.761,0.479,0.939,0.683,0.311,0.544,0.503,���쓌,3.6,��
2024/06/06,09:20,0.495,0.762,0.479,0.938,0.683,0.311,0.544,0.504,���쓌,3.2,��
2024/06/06,09:30,0.495,0.761,0.478,0.939,0.685,0.311,0.545,0.504,�쓌,3.6,��
2024/06/06,09:40,0.496,0.760,0.478,0.936,0.684,0.312,0.545,0.503,�쓌,3.7,��
2024/06/06,09:50,0.494,0.764,0.478,0.936,0.684,0.311,0.547,0.503,�쓌,3.5,��
2024/06/06,10:00,0.493,0.762,0.479,0.937,0.684,0.310,0.546,0.505,�쓌,3.5,��
2024/06/06,10:10,-,0.760,0.479,0.936,0.684,0.311,0.547,0.504,���쓌,3.3,��
2024/06/06,10:20,-,0.762,0.478,0.936,0.685,0.309,0.544,0.504,���쓌,3.2,��
2024/06/06,10:30,-,0.761,0.478,0.934,0.685,0.311,0.544,0.503,��,2.9,��
2024/06/06,10:40,-,0.761,0.480,0.936,0.684,0.311,0.546,0.504,���쓌,3.5,��
2024/06/06,10:50,-,0.763,0.479,0.938,0.686,0.310,0.545,0.504,�쓌,3.9,��
2024/06/06,11:00,-,0.761,0.481,0.938,0.684,0.312,0.545,0.504,���쓌,3.7,��
2024/06/06,11:10,-,0.761,0.480,0.934,0.685,0.312,0.544,0.503,���쓌,4.0,��
2024/06/06,11:20,-,0.764,0.479,0.935,0.685,0.311,0.545,0.504,�쓌,3.6,��
2024/06/06,11:30,-,0.763,0.479,0.935,0.685,0.313,0.545,0.503,�쓌,4.6,��
2024/06/06,11:40,-,0.763,0.479,0.934,0.686,0.309,0.546,0.504,�쓌,3.5,��
2024/06/06,11:50,-,0.763,0.479,0.933,0.688,0.312,0.546,0.504,���쓌,3.1,��
2024/06/06,12:00,-,0.764,0.480,0.934,0.686,0.311,0.543,0.504,�쓌,2.8,��
2024/06/06,12:10,-,0.765,0.481,0.934,0.686,0.312,0.544,0.504,�쓌,4.3,��
2024/06/06,12:20,-,0.764,0.481,0.934,0.687,0.313,0.546,0.502,��쓌,4.9,��
2024/06/06,12:30,-,0.763,0.480,0.936,0.687,0.312,0.545,0.505,�쓌,3.5,��
2024/06/06,12:40,-,0.763,0.482,0.936,0.688,0.312,0.545,0.504,�쓌,4.1,��
2024/06/06,12:50,-,0.764,0.480,0.934,0.687,0.312,0.545,0.505,�쓌,4.3,��
2024/06/06,13:00,-,0.764,0.480,0.938,0.687,0.313,0.546,0.503,�쓌,4.5,��
2024/06/06,13:10,-,0.762,0.481,0.935,0.688,0.312,0.547,0.503,��쓌,3.7,��
2024/06/06,13:20,-,0.764,0.480,0.937,0.689,0.311,0.547,0.504,�쓌,3.6,��
2024/06/06,13:30,0.495,0.764,0.481,0.933,0.686,0.311,0.547,0.504,���쓌,4.0,��
2024/06/06,13:40,0.497,0.764,0.480,0.936,0.688,0.312,0.549,0.504,���쓌,4.3,��
2024/06/06,13:50,0.497,0.764,0.481,0.937,0.689,0.311,0.545,0.504,�쓌,3.6,��
2024/06/06,14:00,0.497,0.764,0.479,0.938,0.687,0.312,0.546,0.505,�쓌,2.8,��
2024/06/06,14:10,0.496,0.765,0.481,0.936,0.688,0.313,0.546,0.504,�쓌,4.2,��
2024/06/06,14:20,0.498,0.761,0.482,0.934,0.689,0.311,0.547,0.505,�쓌,3.8,��
2024/06/06,14:30,0.496,0.766,0.480,0.937,0.689,0.313,0.546,0.506,�쓌,3.7,��
2024/06/06,14:40,0.497,0.765,0.480,0.936,0.689,0.312,0.547,0.503,�쓌,3.3,��
2024/06/06,14:50,0.497,0.762,0.479,0.938,0.687,0.311,0.547,0.505,�쓌,3.4,��
2024/06/06,15:00,0.497,0.763,0.479,0.937,0.689,0.312,0.547,0.504,�쓌,3.3,��
2024/06/06,15:10,0.496,0.765,0.480,0.938,0.688,0.312,0.546,0.505,�쓌,3.2,��
2024/06/06,15:20,0.497,0.764,0.481,0.939,0.688,0.312,0.545,0.504,���쓌,3.3,��
2024/06/06,15:30,0.498,0.765,0.481,0.938,0.688,0.312,0.547,0.504,�쓌,3.4,��
2024/06/06,15:40,0.496,0.766,0.481,0.940,0.689,0.311,0.545,0.504,���쓌,2.9,��
2024/06/06,15:50,0.496,0.764,0.480,0.938,0.688,0.311,0.546,0.506,�쓌,3.0,��
2024/06/06,16:00,0.496,0.764,0.480,0.941,0.688,0.312,0.548,0.504,���쓌,2.6,��
2024/06/06,16:10,0.497,0.765,0.479,0.940,0.688,0.312,0.547,0.503,���쓌,3.0,��
2024/06/06,16:20,0.496,0.765,0.479,0.937,0.688,0.311,0.545,0.504,��쓌,3.7,��
2024/06/06,16:30,0.497,0.764,0.481,0.940,0.689,0.313,0.548,0.503,��쓌,3.4,��
2024/06/06,16:40,0.497,0.763,0.480,0.939,0.689,0.311,0.547,0.506,��쓌,3.4,��
2024/06/06,16:50,0.496,0.765,0.481,0.940,0.688,0.311,0.546,0.505,��쓌,4.2,��
2024/06/06,17:00,0.495,0.762,0.482,0.939,0.688,0.311,0.548,0.503,��쓌,4.4,��
2024/06/06,17:10,0.495,0.764,0.482,0.940,0.687,0.313,0.549,0.504,�쓌,3.4,��
2024/06/06,17:20,0.497,0.763,0.482,0.942,0.690,0.310,0.547,0.504,��쓌,3.2,��
2024/06/06,17:30,0.496,0.763,0.483,0.941,0.688,0.312,0.549,0.505,��쓌,4.3,��
2024/06/06,17:40,0.494,0.764,0.481,0.940,0.690,0.312,0.548,0.505,��쓌,5.2,��
2024/06/06,17:50,0.495,0.764,0.481,0.940,0.689,0.311,0.548,0.505,��,5.3,��
2024/06/06,18:00,0.497,0.763,0.481,0.941,0.690,0.311,0.547,0.504,��,5.4,��
2024/06/06,18:10,0.497,0.767,0.483,0.941,0.687,0.312,0.549,0.507,��,4.6,��
2024/06/06,18:20,0.495,0.766,0.482,0.943,0.689,0.312,0.548,0.505,��,5.2,��
2024/06/06,18:30,0.496,0.765,0.482,0.941,0.691,0.313,0.549,0.504,��,5.2,��
2024/06/06,18:40,0.496,0.766,0.483,0.941,0.688,0.313,0.548,0.506,��쓌,4.9,��
2024/06/06,18:50,0.496,0.766,0.481,0.940,0.687,0.311,0.548,0.507,��,5.1,��
2024/06/06,19:00,0.497,0.768,0.483,0.941,0.690,0.313,0.550,0.505,��,6.3,��
2024/06/06,19:10,0.497,0.770,0.483,0.941,0.690,0.313,0.549,0.508,��,5.1,��
2024/06/06,19:20,0.497,0.769,0.483,0.942,0.690,0.312,0.549,0.507,��,4.7,��
2024/06/06,19:30,0.495,0.768,0.484,0.940,0.690,0.315,0.549,0.506,��쓌,4.0,��
2024/06/06,19:40,0.497,0.768,0.483,0.942,0.691,0.314,0.549,0.507,��,5.2,��
2024/06/06,19:50,0.500,0.767,0.482,0.941,0.690,0.313,0.549,0.506,��,5.1,��
2024/06/06,20:00,0.498,0.767,0.484,0.941,0.693,0.313,0.549,0.507,��,5.0,��
2024/06/06,20:10,0.496,0.768,0.483,0.940,0.692,0.314,0.549,0.506,��,5.2,��
2024/06/06,20:20,0.499,0.769,0.481,0.939,0.692,0.315,0.548,0.506,��,5.0,��
2024/06/06,20:30,0.498,0.766,0.484,0.941,0.691,0.313,0.549,0.506,��,4.8,��
2024/06/06,20:40,0.499,0.769,0.483,0.942,0.692,0.313,0.550,0.508,��,5.1,��
2024/06/06,20:50,0.498,0.768,0.483,0.941,0.692,0.314,0.548,0.507,��,5.1,��
2024/06/06,21:00,0.498,0.767,0.483,0.939,0.692,0.313,0.549,0.507,��,4.8,��
2024/06/06,21:10,0.499,0.765,0.483,0.942,0.691,0.315,0.550,0.506,��,4.2,��
2024/06/06,21:20,0.498,0.766,0.484,0.941,0.693,0.313,0.549,0.507,��,3.4,��
2024/06/06,21:30,0.497,0.770,0.483,0.943,0.692,0.315,0.549,0.506,��,4.3,��
2024/06/06,21:40,0.500,0.769,0.483,0.942,0.693,0.313,0.549,0.505,��,3.8,��
2024/06/06,21:50,0.498,0.768,0.484,0.942,0.689,0.315,0.550,0.507,��,4.1,��
2024/06/06,22:00,0.499,0.768,0.484,0.943,0.692,0.315,0.549,0.507,��쐼,1.5,��
2024/06/06,22:10,0.498,0.770,0.484,0.940,0.692,0.315,0.549,0.506,�k��,0.8,��
2024/06/06,22:20,0.501,0.769,0.482,0.941,0.692,0.314,0.549,0.506,��,1.1,��
2024/06/06,22:30,0.499,0.769,0.483,0.943,0.692,0.316,0.550,0.507,�k��,2.2,��
2024/06/06,22:40,0.500,0.769,0.483,0.943,0.692,0.314,0.549,0.507,�k�k��,2.5,��
2024/06/06,22:50,0.499,0.767,0.482,0.943,0.692,0.314,0.549,0.509,�k�k��,2.8,��
2024/06/06,23:00,0.499,0.768,0.484,0.942,0.692,0.314,0.549,0.508,�k,3.9,��
2024/06/06,23:10,0.500,0.770,0.485,0.940,0.690,0.314,0.550,0.507,�k,4.2,��
2024/06/06,23:20,0.500,0.770,0.483,0.941,0.691,0.315,0.549,0.507,�k,4.8,��
2024/06/06,23:30,0.499,0.768,0.483,0.940,0.692,0.314,0.550,0.508,�k,5.2,��
2024/06/06,23:40,0.499,0.767,0.484,0.942,0.692,0.313,0.550,0.507,�k,5.7,��
2024/06/06,23:50,0.499,0.768,0.484,0.940,0.692,0.315,0.549,0.506,�k,5.5,��
